| time (UTC) | temp C | wind direction | speed KPH | gust KPH | rain 1hr cm | rain 24hr cm | rain mn cm | humidity % | barometer mb |
| 20260508001559 | 7 | 169 | 0.0 | 3.2 | 0.03 | 3.48 | 3.48 | 100 | 1002.5 |
| 20260508000059 | 7 | 172 | 0.0 | 8.0 | 0.03 | 3.48 | 3.48 | 100 | 1002.5 |
| 20260507234559 | 7 | 194 | 4.8 | 9.7 | 0.00 | 3.45 | 3.45 | 100 | 1002.6 |
| 20260507233058 | 7 | 184 | 3.2 | 9.7 | 0.00 | 3.45 | 3.45 | 100 | 1002.8 |
| 20260507231558 | 7 | 254 | 1.6 | 6.4 | 0.00 | 3.45 | 3.45 | 100 | 1002.4 |
| 20260507230104 | 7 | 144 | 4.8 | 19.3 | 0.00 | 3.45 | 3.45 | 100 | 1002.7 |
| 20260507224656 | 7 | 125 | 8.0 | 14.5 | 0.00 | 3.45 | 3.45 | 100 | 1003.1 |
| 20260507223100 | 7 | 140 | 3.2 | 9.7 | 0.00 | 3.45 | 3.45 | 100 | 1002.8 |
| 20260507221555 | 7 | 175 | 6.4 | 16.1 | 0.00 | 3.45 | 3.45 | 100 | 1003.0 |
| 20260507220054 | 7 | 138 | 11.3 | 20.9 | 0.00 | 3.45 | 3.45 | 100 | 1003.0 |
| 20260507214615 | 8 | 165 | 9.7 | 20.9 | 0.03 | 3.45 | 3.45 | 100 | 1003.2 |
| 20260507213104 | 8 | 159 | 14.5 | 30.6 | 0.03 | 3.45 | 3.45 | 100 | 1003.5 |
| 20260507211607 | 8 | 138 | 14.5 | 20.9 | 0.05 | 3.45 | 3.45 | 100 | 1003.3 |
| 20260507210055 | 8 | 121 | 17.7 | 29.0 | 0.18 | 3.45 | 3.45 | 100 | 1003.0 |
| 20260507204601 | 8 | 146 | 14.5 | 24.1 | 0.25 | 3.43 | 3.43 | 100 | 1002.7 |
| 20260507203053 | 8 | 138 | 11.3 | 20.9 | 0.48 | 3.43 | 3.43 | 100 | 1003.6 |
| 20260507201547 | 8 | 145 | 9.7 | 19.3 | 0.71 | 3.40 | 3.40 | 100 | 1003.9 |
| 20260507200045 | 8 | 138 | 6.4 | 14.5 | 1.02 | 3.28 | 3.28 | 100 | 1004.2 |
| 20260507194613 | 8 | 152 | 9.7 | 14.5 | 1.52 | 3.17 | 3.17 | 100 | 1004.5 |
| 20260507193041 | 8 | 161 | 4.8 | 9.7 | 1.65 | 2.92 | 2.92 | 100 | 1005.0 |
| 20260507191543 | 8 | 131 | 8.0 | 16.1 | 1.85 | 2.67 | 2.67 | 100 | 1005.3 |
| 20260507190034 | 7 | 225 | 8.0 | 20.9 | 1.83 | 2.26 | 2.26 | 100 | 1005.9 |
| 20260507184539 | 7 | 186 | 12.9 | 24.1 | 1.32 | 1.65 | 1.65 | 100 | 1005.9 |
| 20260507183037 | 7 | 164 | 8.0 | 17.7 | 1.02 | 1.30 | 1.30 | 100 | 1005.8 |
| 20260507181531 | 7 | 175 | 9.7 | 19.3 | 0.53 | 0.81 | 0.81 | 100 | 1006.3 |
| 20260507180031 | 6 | 169 | 11.3 | 20.9 | 0.18 | 0.43 | 0.43 | 100 | 1006.1 |
| 20260507174536 | 7 | 142 | 20.9 | 33.8 | 0.08 | 0.33 | 0.33 | 100 | 1005.6 |
| 20260507173035 | 7 | 173 | 11.3 | 27.4 | 0.03 | 0.28 | 0.28 | 100 | 1005.9 |
| 20260507171525 | 7 | 171 | 22.5 | 32.2 | 0.05 | 0.28 | 0.28 | 100 | 1006.4 |
| 20260507170023 | 7 | 149 | 16.1 | 25.7 | 0.03 | 0.25 | 0.25 | 100 | 1006.4 |
| 20260507164522 | 7 | 150 | 14.5 | 27.4 | 0.03 | 0.25 | 0.25 | 100 | 1006.9 |
| 20260507163020 | 7 | 147 | 14.5 | 24.1 | 0.03 | 0.25 | 0.25 | 100 | 1007.3 |
| 20260507161517 | 7 | 145 | 12.9 | 30.6 | 0.00 | 0.23 | 0.23 | 100 | 1007.8 |
| 20260507160020 | 7 | 163 | 14.5 | 27.4 | 0.00 | 0.23 | 0.23 | 100 | 1008.3 |
| 20260507154527 | 6 | 161 | 17.7 | 29.0 | 0.00 | 0.23 | 0.23 | 100 | 1008.7 |
| 20260507153028 | 6 | 127 | 11.3 | 19.3 | 0.00 | 0.23 | 0.23 | 100 | 1009.4 |
| 20260507151509 | 6 | 139 | 14.5 | 29.0 | 0.00 | 0.23 | 0.23 | 100 | 1010.0 |
| 20260507150008 | 7 | 169 | 12.9 | 29.0 | 0.00 | 0.23 | 0.23 | 100 | 1010.1 |
| 20260507144507 | 7 | 146 | 19.3 | 29.0 | 0.00 | 0.23 | 0.23 | 100 | 1010.2 |
| 20260507143005 | 7 | 140 | 22.5 | 30.6 | 0.00 | 0.23 | 0.23 | 100 | 1010.4 |
| 20260507141501 | 7 | 143 | 19.3 | 32.2 | 0.00 | 0.23 | 0.23 | 100 | 1010.7 |
| 20260507140100 | 7 | 153 | 14.5 | 32.2 | 0.00 | 0.23 | 0.23 | 100 | 1011.3 |
| 20260507134601 | 7 | 150 | 14.5 | 29.0 | 0.00 | 0.23 | 0.23 | 100 | 1011.2 |
| 20260507133109 | 7 | 151 | 22.5 | 29.0 | 0.00 | 0.23 | 0.23 | 100 | 1011.3 |
| 20260507131612 | 7 | 171 | 16.1 | 22.5 | 0.00 | 0.23 | 0.23 | 100 | 1011.9 |
| 20260507130057 | 7 | 164 | 17.7 | 29.0 | 0.03 | 0.23 | 0.23 | 100 | 1011.6 |
| 20260507124558 | 7 | 183 | 12.9 | 30.6 | 0.03 | 0.23 | 0.23 | 100 | 1011.7 |
| 20260507123055 | 7 | 150 | 22.5 | 32.2 | 0.03 | 0.23 | 0.23 | 100 | 1011.5 |
| 20260507121552 | 7 | 141 | 22.5 | 33.8 | 0.03 | 0.23 | 0.23 | 100 | 1012.0 |
| 20260507120050 | 7 | 151 | 17.7 | 38.6 | 0.00 | 0.20 | 0.20 | 100 | 1011.8 |
| 20260507114548 | 7 | 144 | 25.7 | 38.6 | 0.08 | 0.20 | 0.20 | 100 | 1012.3 |
| 20260507113046 | 7 | 169 | 22.5 | 32.2 | 0.10 | 0.20 | 0.20 | 100 | 1012.4 |
| 20260507111544 | 7 | 199 | 17.7 | 37.0 | 0.10 | 0.20 | 0.20 | 100 | 1012.4 |
| 20260507110042 | 7 | 154 | 24.1 | 40.2 | 0.10 | 0.20 | 0.20 | 100 | 1012.4 |
| 20260507104539 | 7 | 142 | 30.6 | 53.1 | 0.05 | 0.13 | 0.13 | 100 | 1012.4 |
| 20260507103036 | 7 | 132 | 19.3 | 32.2 | 0.03 | 0.10 | 0.10 | 100 | 1012.5 |
| 20260507101534 | 6 | 146 | 17.7 | 33.8 | 0.03 | 0.10 | 0.10 | 100 | 1012.7 |
| 20260507100035 | 6 | 151 | 20.9 | 33.8 | 0.00 | 0.08 | 0.08 | 100 | 1012.6 |
| 20260507094531 | 6 | 140 | 14.5 | 22.5 | 0.00 | 0.08 | 0.08 | 100 | 1012.9 |
| 20260507093029 | 6 | 148 | 6.4 | 16.1 | 0.03 | 0.08 | 0.08 | 100 | 1012.7 |
| 20260507091528 | 7 | 213 | 12.9 | 29.0 | 0.03 | 0.08 | 0.08 | 100 | 1012.5 |
| 20260507090026 | 7 | 123 | 14.5 | 25.7 | 0.03 | 0.08 | 0.08 | 100 | 1012.6 |
| 20260507084522 | 7 | 177 | 14.5 | 24.1 | 0.03 | 0.08 | 0.08 | 100 | 1013.1 |
| 20260507083021 | 7 | 186 | 6.4 | 16.1 | 0.00 | 0.05 | 0.05 | 100 | 1013.2 |
| 20260507081520 | 6 | 196 | 4.8 | 12.9 | 0.03 | 0.05 | 0.05 | 100 | 1013.2 |
| 20260507080018 | 6 | 194 | 6.4 | 17.7 | 0.03 | 0.05 | 0.05 | 100 | 1013.2 |
| 20260507074516 | 6 | 161 | 4.8 | 16.1 | 0.03 | 0.05 | 0.05 | 100 | 1013.4 |
| 20260507073015 | 6 | 151 | 6.4 | 17.7 | 0.05 | 0.05 | 0.05 | 100 | 1013.9 |
| 20260507071534 | 6 | 175 | 3.2 | 11.3 | 0.03 | 0.03 | 0.03 | 100 | 1014.3 |
| 20260507070013 | 6 | 199 | 11.3 | 19.3 | 0.03 | 0.03 | 0.03 | 100 | 1014.6 |
| 20260507064513 | 7 | 142 | 12.9 | 22.5 | 0.03 | 0.03 | 0.03 | 100 | 1014.8 |
| 20260507063008 | 7 | 158 | 14.5 | 29.0 | 0.00 | 0.00 | 0.00 | 100 | 1014.9 |
| 20260507061506 | 7 | 136 | 14.5 | 25.7 | 0.00 | 0.00 | 0.00 | 100 | 1014.9 |
| 20260507060004 | 7 | 171 | 11.3 | 19.3 | 0.00 | 0.00 | 0.00 | 100 | 1015.3 |
| 20260507054503 | 7 | 156 | 11.3 | 16.1 | 0.00 | 0.00 | 0.00 | 100 | 1015.3 |
| 20260507053129 | 7 | 152 | 11.3 | 16.1 | 0.00 | 0.00 | 0.00 | 100 | 1015.6 |
| 20260507051605 | 7 | 136 | 12.9 | 19.3 | 0.00 | 0.00 | 0.00 | 100 | 1016.0 |
| 20260507050055 | 7 | 129 | 11.3 | 16.1 | 0.00 | 0.00 | 0.00 | 100 | 1016.2 |
| 20260507044557 | 7 | 145 | 6.4 | 14.5 | 0.00 | 0.00 | 0.00 | 100 | 1016.6 |
| 20260507043053 | 7 | 143 | 4.8 | 12.9 | 0.00 | 0.00 | 0.00 | 100 | 1016.8 |
| 20260507041549 | 7 | 192 | 8.0 | 12.9 | 0.00 | 0.00 | 0.00 | 100 | 1017.3 |
| 20260507040047 | 7 | 171 | 4.8 | 16.1 | 0.00 | 0.00 | 0.00 | 100 | 1017.2 |
| 20260507034547 | 7 | 156 | 4.8 | 0.0 | 0.00 | 0.00 | 0.00 | 100 | 1017.5 |
| 20260507033050 | 6 | 165 | 4.8 | 11.3 | 0.00 | 0.00 | 0.00 | 100 | 1017.8 |
| 20260507031541 | 6 | 178 | 6.4 | 12.9 | 0.00 | 0.00 | 0.00 | 100 | 1018.1 |
| 20260507030039 | 6 | 183 | 8.0 | 14.5 | 0.00 | 0.00 | 0.00 | 100 | 1018.1 |
| 20260507024540 | 6 | 146 | 9.7 | 16.1 | 0.00 | 0.00 | 0.00 | 100 | 1018.4 |
| 20260507023038 | 6 | 135 | 11.3 | 16.1 | 0.00 | 0.00 | 0.00 | 100 | 1018.7 |
| 20260507021535 | 6 | 152 | 1.6 | 16.1 | 0.00 | 0.00 | 0.00 | 100 | 1018.8 |
| 20260507020035 | 6 | 177 | 6.4 | 14.5 | 0.00 | 0.00 | 0.00 | 100 | 1018.8 |
| 20260507014535 | 6 | 170 | 8.0 | 17.7 | 0.00 | 0.00 | 0.00 | 100 | 1019.0 |
| 20260507013031 | 6 | 146 | 11.3 | 19.3 | 0.00 | 0.00 | 0.00 | 100 | 1019.1 |
| 20260507011537 | 7 | 167 | 16.1 | 22.5 | 0.00 | 0.00 | 0.00 | 100 | 1019.1 |
| 20260507010030 | 7 | 169 | 11.3 | 17.7 | 0.00 | 0.00 | 0.00 | 100 | 1019.4 |
| 20260507004536 | 7 | 150 | 16.1 | 25.7 | 0.00 | 0.00 | 0.00 | 100 | 1019.5 |
| 20260507003029 | 7 | 166 | 16.1 | 22.5 | 0.00 | 0.00 | 0.00 | 100 | 1019.2 |